Simultaneous Nadir Overpasses (SNOs) Predictions

Prediction of SNOs between TERRA and METOP-C Satellite Orbit:

Table of predicted SNOs for the next 14.0 days since TLE Epoch: 3/6/2021
Index Date (TERRA) Time (TERRA) Lat,Lon (TERRA) SZA (TERRA ) Date (METOP-C) Time (METOP-C) Lat,Lon (METOP-C) SZA (METOP-C ) Distance(km) Time Diff (sec)
1 03/08/2021 19:19:52 -81.27, 116.06 91.83 03/08/2021 19:18:58 -81.28, 115.94 91.86 2.04 54
2 03/08/2021 20:09:17 81.30, -75.84 88.23 03/08/2021 20:09:36 81.29, -75.89 88.23 1.11 19
3 03/11/2021 14:54:05 -81.28,-177.36 92.89 03/11/2021 14:53:20 -81.28,-177.55 92.93 3.25 45
4 03/11/2021 15:43:31 81.28, -9.66 87.11 03/11/2021 15:43:59 81.29, -9.75 87.12 1.58 28
5 03/14/2021 10:28:18 -81.29,-110.81 93.96 03/14/2021 10:27:41 -81.29,-110.66 93.96 2.43 37
6 03/14/2021 11:17:44 81.29, 56.86 86.04 03/14/2021 11:18:21 81.29, 56.77 86.05 1.59 37
7 03/17/2021 06:02:30 -81.29, -44.30 95.03 03/17/2021 06:02:02 -81.29, -44.19 95.03 1.96 28
8 03/17/2021 06:51:56 81.29, 123.35 84.96 03/17/2021 06:52:42 81.29, 123.28 84.97 1.22 46
9 03/20/2021 01:36:43 -81.29, 22.17 96.11 03/20/2021 01:36:24 -81.29, 22.28 96.11 1.89 19



Historial Predications of SNOs between TERRA and METOP-C
